When you browse on this site, cookies collect data to enhance your experience and personalize the content and advertising you see.
Visit our Privacy Policy to learn more. By continuing to use the site, you agree to this use of cookies and data.
  • Em Portugal
  • Lista de países
  • Para 7 dias
  • Temperatura da água
  • Mapa do tempo
  • Widgets de tempo
  • user-avatar
    Iniciar Sessão

    Previsão horária em Novelda

    Hoje, 22 Agosto, Quinta-feira

    Tempo Temperatura Precipitação Vento Pressão Humidade
    00:00 +23°C° 0 mm 1 m/s 740 mmHg 75%
    01:00 +23°C° 0 mm 1 m/s 740 mmHg 76%
    02:00 +22°C° 0 mm 1 m/s 739 mmHg 77%
    03:00 +20°C° 0 mm 0 m/s 739 mmHg 78%
    04:00 +22°C° 0 mm 1 m/s 739 mmHg 77%
    05:00 +22°C° 0 mm 1 m/s 739 mmHg 76%
    06:00 +22°C° 0 mm 1 m/s 739 mmHg 75%
    07:00 +24°C° 0 mm 1 m/s 740 mmHg 67%
    08:00 +26°C° 0 mm 1 m/s 740 mmHg 59%
    09:00 +27°C° 0 mm 2 m/s 741 mmHg 51%
    10:00 +28°C° 0 mm 3 m/s 740 mmHg 47%
    11:00 +30°C° 0 mm 3 m/s 740 mmHg 43%
    12:00 +32°C° 0 mm 4 m/s 740 mmHg 40%
    13:00 +30°C° 0 mm 5 m/s 740 mmHg 41%
    14:00 +30°C° 0 mm 5 m/s 740 mmHg 42%
    15:00 +30°C° 0 mm 5 m/s 739 mmHg 43%
    16:00 +29°C° 0 mm 4 m/s 739 mmHg 46%
    17:00 +28°C° 0 mm 4 m/s 739 mmHg 49%
    18:00 +27°C° 0 mm 3 m/s 739 mmHg 52%
    19:00 +26°C° 0 mm 2 m/s 739 mmHg 58%
    20:00 +26°C° 0 mm 2 m/s 740 mmHg 63%
    21:00 +25°C° 0 mm 1 m/s 740 mmHg 68%
    22:00 +24°C° 0 mm 1 m/s 740 mmHg 69%
    23:00 +22°C° 0 mm 0 m/s 740 mmHg 71%

    Amanhã, 23 Agosto, Sexta-feira

    Tempo Temperatura Precipitação Vento Pressão Humidade
    00:00 +21°C° 0 mm 0 m/s 740 mmHg 72%
    01:00 +21°C° 0 mm 0 m/s 740 mmHg 72%
    02:00 +20°C° 0 mm 0 m/s 739 mmHg 72%
    03:00 +22°C° 0 mm 1 m/s 739 mmHg 72%
    04:00 +22°C° 0 mm 1 m/s 739 mmHg 70%
    05:00 +22°C° 0 mm 1 m/s 739 mmHg 69%
    06:00 +22°C° 0 mm 1 m/s 739 mmHg 68%
    07:00 +24°C° 0 mm 1 m/s 740 mmHg 57%
    08:00 +26°C° 0 mm 1 m/s 740 mmHg 47%
    09:00 +28°C° 0 mm 2 m/s 740 mmHg 36%
    10:00 +29°C° 0 mm 2 m/s 740 mmHg 34%
    11:00 +30°C° 0 mm 3 m/s 740 mmHg 32%
    12:00 +32°C° 0 mm 4 m/s 740 mmHg 30%
    13:00 +32°C° 0 mm 4 m/s 739 mmHg 31%
    14:00 +32°C° 0 mm 4 m/s 739 mmHg 32%
    15:00 +32°C° 0 mm 5 m/s 739 mmHg 33%
    16:00 +30°C° 0 mm 4 m/s 739 mmHg 36%
    17:00 +29°C° 0 mm 3 m/s 738 mmHg 39%
    18:00 +28°C° 0 mm 3 m/s 738 mmHg 42%
    19:00 +27°C° 0 mm 2 m/s 738 mmHg 47%
    20:00 +26°C° 0 mm 1 m/s 739 mmHg 52%
    21:00 +23°C° 0 mm 0 m/s 739 mmHg 57%
    22:00 +22°C° 0 mm 0 m/s 739 mmHg 58%
    23:00 +22°C° 0 mm 0 m/s 739 mmHg 58%

    Depois de amanhã, 24 Agosto, Sábado

    Tempo Temperatura Precipitação Vento Pressão Humidade
    00:00 +21°C° 0 mm 0 m/s 739 mmHg 58%
    01:00 +21°C° 0 mm 0 m/s 738 mmHg 59%
    02:00 +21°C° 0 mm 0 m/s 738 mmHg 59%
    03:00 +20°C° 0 mm 0 m/s 738 mmHg 59%
    04:00 +20°C° 0 mm 0 m/s 738 mmHg 59%
    05:00 +20°C° 0 mm 0 m/s 738 mmHg 60%
    06:00 +20°C° 0 mm 0 m/s 738 mmHg 60%
    07:00 +22°C° 0 mm 0 m/s 738 mmHg 52%
    08:00 +25°C° 0 mm 0 m/s 739 mmHg 43%
    09:00 +29°C° 0 mm 1 m/s 739 mmHg 35%
    10:00 +30°C° 0 mm 1 m/s 739 mmHg 33%
    11:00 +31°C° 0 mm 2 m/s 739 mmHg 30%
    12:00 +33°C° 0 mm 3 m/s 739 mmHg 28%
    13:00 +33°C° 0 mm 3 m/s 739 mmHg 30%
    14:00 +33°C° 0 mm 4 m/s 738 mmHg 33%
    15:00 +33°C° 0 mm 4 m/s 738 mmHg 35%
    16:00 +32°C° 0 mm 4 m/s 738 mmHg 40%
    17:00 +30°C° 0 mm 3 m/s 737 mmHg 45%
    18:00 +28°C° 0 mm 2 m/s 737 mmHg 49%
    19:00 +27°C° 0 mm 2 m/s 738 mmHg 55%
    20:00 +26°C° 0 mm 1 m/s 738 mmHg 61%
    21:00 +25°C° 0 mm 1 m/s 738 mmHg 66%
    22:00 +23°C° 0 mm 0 m/s 738 mmHg 68%
    23:00 +22°C° 0 mm 0 m/s 738 mmHg 70%

    25 Agosto, Domingo

    Tempo Temperatura Precipitação Vento Pressão Humidade
    00:00 +22°C° 0 mm 0 m/s 738 mmHg 72%
    01:00 +21°C° 0 mm 0 m/s 737 mmHg 72%
    02:00 +21°C° 0 mm 0 m/s 737 mmHg 73%
    03:00 +21°C° 0 mm 0 m/s 737 mmHg 73%
    04:00 +21°C° 0 mm 0 m/s 737 mmHg 73%
    05:00 +21°C° 0 mm 0 m/s 737 mmHg 73%
    06:00 +21°C° 0 mm 0 m/s 737 mmHg 72%
    07:00 +24°C° 0 mm 1 m/s 737 mmHg 65%
    08:00 +26°C° 0 mm 1 m/s 738 mmHg 57%
    09:00 +28°C° 0 mm 2 m/s 738 mmHg 49%
    10:00 +29°C° 0 mm 2 m/s 738 mmHg 47%
    11:00 +30°C° 0 mm 3 m/s 738 mmHg 44%
    12:00 +32°C° 0 mm 4 m/s 737 mmHg 41%
    13:00 +32°C° 0 mm 4 m/s 737 mmHg 42%
    14:00 +32°C° 0 mm 4 m/s 737 mmHg 42%
    15:00 +32°C° 0 mm 4 m/s 736 mmHg 43%
    16:00 +30°C° 0 mm 4 m/s 736 mmHg 48%
    17:00 +29°C° 0 mm 4 m/s 736 mmHg 52%
    18:00 +28°C° 0 mm 3 m/s 736 mmHg 57%
    19:00 +27°C° 0 mm 3 m/s 736 mmHg 62%
    20:00 +26°C° 0 mm 2 m/s 736 mmHg 67%
    21:00 +25°C° 0 mm 2 m/s 736 mmHg 72%
    22:00 +24°C° 0 mm 2 m/s 736 mmHg 75%
    23:00 +24°C° 0 mm 1 m/s 736 mmHg 77%

    26 Agosto, Segunda-feira

    Tempo Temperatura Precipitação Vento Pressão Humidade
    00:00 +24°C° 0 mm 1 m/s 736 mmHg 80%
    01:00 +24°C° 0 mm 1 m/s 736 mmHg 81%
    02:00 +23°C° 0 mm 1 m/s 736 mmHg 82%
    03:00 +23°C° 0 mm 1 m/s 736 mmHg 84%
    04:00 +23°C° 0.1 mm 2 m/s 736 mmHg 83%
    05:00 +22°C° 0.1 mm 4 m/s 736 mmHg 82%
    06:00 +22°C° 0.1 mm 5 m/s 736 mmHg 81%
    07:00 +23°C° 0.4 mm 4 m/s 736 mmHg 71%
    08:00 +25°C° 0.4 mm 3 m/s 737 mmHg 62%
    09:00 +26°C° 0.4 mm 2 m/s 737 mmHg 52%
    10:00 +27°C° 0.1 mm 3 m/s 737 mmHg 49%
    11:00 +29°C° 0.1 mm 4 m/s 737 mmHg 45%
    12:00 +30°C° 0.1 mm 5 m/s 737 mmHg 41%
    13:00 +30°C° 0 mm 5 m/s 736 mmHg 44%
    14:00 +30°C° 0 mm 6 m/s 736 mmHg 47%
    15:00 +30°C° 0 mm 6 m/s 736 mmHg 50%
    16:00 +29°C° 0 mm 6 m/s 735 mmHg 53%
    17:00 +28°C° 0 mm 5 m/s 735 mmHg 55%
    18:00 +27°C° 0 mm 5 m/s 735 mmHg 58%
    19:00 +27°C° 0.1 mm 4 m/s 735 mmHg 63%
    20:00 +26°C° 0.1 mm 4 m/s 736 mmHg 69%
    21:00 +26°C° 0.1 mm 3 m/s 736 mmHg 74%
    22:00 +25°C° 1.4 mm 3 m/s 736 mmHg 76%
    23:00 +25°C° 1.4 mm 2 m/s 736 mmHg 77%

    27 Agosto, Terça-feira

    Tempo Temperatura Precipitação Vento Pressão Humidade
    00:00 +25°C° 1.4 mm 1 m/s 735 mmHg 79%
    01:00 +24°C° 0.1 mm 1 m/s 735 mmHg 78%
    02:00 +24°C° 0.1 mm 1 m/s 734 mmHg 77%
    03:00 +24°C° 0.1 mm 1 m/s 734 mmHg 76%
    04:00 +24°C° 0.8 mm 2 m/s 734 mmHg 77%
    05:00 +22°C° 0.8 mm 4 m/s 734 mmHg 79%
    06:00 +22°C° 0.8 mm 5 m/s 734 mmHg 80%
    07:00 +23°C° 0.4 mm 4 m/s 734 mmHg 73%
    08:00 +25°C° 0.4 mm 3 m/s 735 mmHg 66%
    09:00 +27°C° 0.4 mm 3 m/s 735 mmHg 59%
    10:00 +28°C° 0.1 mm 3 m/s 735 mmHg 55%
    11:00 +28°C° 0.1 mm 3 m/s 735 mmHg 52%
    12:00 +29°C° 0.1 mm 3 m/s 734 mmHg 49%
    13:00 +29°C° 0 mm 3 m/s 734 mmHg 52%
    14:00 +29°C° 0 mm 4 m/s 734 mmHg 55%
    15:00 +29°C° 0 mm 5 m/s 733 mmHg 58%
    16:00 +28°C° 0.1 mm 4 m/s 733 mmHg 62%
    17:00 +27°C° 0.1 mm 4 m/s 733 mmHg 66%
    18:00 +27°C° 0.1 mm 3 m/s 733 mmHg 70%
    19:00 +26°C° 0.1 mm 2 m/s 734 mmHg 73%
    20:00 +25°C° 0.1 mm 2 m/s 734 mmHg 76%
    21:00 +25°C° 0.1 mm 1 m/s 734 mmHg 80%
    22:00 +24°C° 0 mm 1 m/s 734 mmHg 80%
    23:00 +24°C° 0 mm 1 m/s 734 mmHg 81%
    Mostrar mais